Location: Unspecified
(41.1850°N, 73.2650°W)
Time: 09:42:04
(UTC+00:00)

ARIANE 6 FM1 Upper Stage - Pass Details

Date: 23 February 2026
Orbit: 523 x 607 km, 62.0° (Epoch: 7 March)

Event Time Altitude Azimuth Distance (km) Brightness Sun altitude
Rises 00:04:59 0° 301° (WNW) 2,656 7.2 -17.5°
Reaches altitude 10° 00:08:31 10° 267° (W) 1,769 6.5 -18.1°
Maximum altitude 00:09:53 12° 247° (WSW) 1,675 6.0 -18.4°
Drops below altitude 10° 00:11:15 10° 227° (SW) 1,774 5.8 -18.7°
Sets 00:14:49 0° 194° (SSW) 2,674 6.3 -19.3°
